Jennings, LA

2:55 PM CDT on July 21, 2017 (GMT -0500)
Jennings

Weather History for K3R7 - August, 2013

Change the Weather History Date:

Friday, August 2, 2013

  Actual Average (KCWF) Record (KCWF)
Temperature  
Mean Temperature 86 °F -  
Max Temperature 95 °F 90 °F 102 °F (1998)
Min Temperature 77 °F 76 °F 69 °F (2000)
Cooling Degree Days 21    
Growing Degree Days 36 (Base 50)    
Moisture  
Dew Point 75 °F    
Average Humidity 78    
Maximum Humidity 96    
Minimum Humidity 49    
Precipitation  
Precipitation 0.16 in - - ()
Sea Level Pressure  
Sea Level Pressure 29.96 in    
Wind  
Wind Speed 2 mph (WSW)    
Max Wind Speed 22 mph    
Max Gust Speed 26 mph    
Visibility 10 miles    
Events Rain , Thunderstorm    
Averages and records for this station are not official NWS values.
T = Trace of Precipitation, MM = Missing Value Source: NWS Daily Summary

Daily Weather History Graph

Daily Weather History Graph

Search for Another Location

Airport or City:

Trip Planner

Search our weather history database for the weather conditions in past years. The results will help you decide how hot, cold, wet, or windy it might be!

Date:

Astronomy

Aug. 02, 2013 Rise Set
Actual Time 6:30 AM CDT 8:03 PM CDT
Civil Twilight 6:04 AM CDT 8:29 PM CDT
Nautical Twilight 5:33 AM CDT 9:00 PM CDT
Astronomical Twilight 5:00 AM CDT 9:32 PM CDT
Moon 2:54 AM CDT (8/2) 4:58 PM CDT (8/2)
Length of Visible Light 14h 25m
Length of Day
13h 33m
Waning Crescent, 15% of the Moon is Illuminated
Aug 2
Waning Crescent
Aug 6
New
Aug 14
First Quarter
Aug 20
Full
Aug 28
Last Quarter

Hourly Weather History & Observations

Time (CDT) Temp. Heat Index Dew Point Humidity Pressure Visibility Wind Dir Wind Speed Gust Speed Precip Events Conditions
12:15 AM 79.7 °F - 76.3 °F 89% 29.96 in 10.0 mi SSW 4.6 mph - N/A   Clear
12:35 AM 79.7 °F - 76.3 °F 89% 29.95 in 10.0 mi Calm Calm - N/A   Clear
12:55 AM 79.0 °F - 76.1 °F 91% 29.95 in 10.0 mi Calm Calm - N/A   Clear
1:15 AM 79.3 °F - 76.3 °F 90% 29.96 in 10.0 mi Calm Calm - N/A   Scattered Clouds
1:35 AM 78.8 °F - 76.3 °F 92% 29.95 in 10.0 mi Calm Calm - N/A   Scattered Clouds
1:55 AM 78.8 °F - 76.3 °F 92% 29.94 in 10.0 mi Calm Calm - N/A   Scattered Clouds
2:15 AM 78.1 °F - 76.1 °F 94% 29.93 in 10.0 mi Calm Calm - N/A   Scattered Clouds
2:35 AM 78.3 °F - 76.1 °F 93% 29.93 in 10.0 mi Calm Calm - N/A   Clear
2:55 AM 77.5 °F - 76.1 °F 95% 29.94 in 10.0 mi Calm Calm - N/A   Clear
3:15 AM 77.5 °F - 76.1 °F 95% 29.94 in 10.0 mi Calm Calm - N/A   Scattered Clouds
3:35 AM 77.5 °F - 76.1 °F 95% 29.94 in 7.0 mi Calm Calm - N/A   Scattered Clouds
3:55 AM 77.5 °F - 76.1 °F 95% 29.95 in 10.0 mi Calm Calm - N/A   Clear
4:15 AM 77.5 °F - 76.1 °F 95% 29.94 in 10.0 mi Calm Calm - N/A   Mostly Cloudy
4:35 AM 77.4 °F - 76.1 °F 96% 29.94 in 7.0 mi Calm Calm - N/A   Mostly Cloudy
4:55 AM 77.9 °F - 76.3 °F 95% 29.95 in 10.0 mi Calm Calm - N/A   Overcast
5:15 AM 78.8 °F - 76.1 °F 91% 29.95 in 10.0 mi Calm Calm - N/A   Mostly Cloudy
5:35 AM 78.3 °F - 76.3 °F 94% 29.96 in 10.0 mi WNW 3.5 mph - N/A   Mostly Cloudy
5:55 AM 77.9 °F - 76.3 °F 95% 29.97 in 10.0 mi Calm Calm - N/A   Mostly Cloudy
6:15 AM 78.3 °F - 76.3 °F 94% 29.98 in 10.0 mi Calm Calm - N/A   Mostly Cloudy
6:35 AM 77.9 °F - 76.1 °F 94% 29.98 in 7.0 mi Calm Calm - N/A   Scattered Clouds
6:55 AM 78.1 °F - 76.1 °F 94% 29.97 in 7.0 mi Calm Calm - N/A   Mostly Cloudy
7:15 AM 78.4 °F - 76.1 °F 92% 29.97 in 7.0 mi NW 3.5 mph - N/A   Mostly Cloudy
7:35 AM 78.8 °F - 76.3 °F 92% 29.98 in 7.0 mi Calm Calm - N/A   Overcast
7:55 AM 79.5 °F - 76.3 °F 90% 29.97 in 7.0 mi NW 5.8 mph - N/A   Overcast
8:15 AM 80.6 °F 86.8 °F 76.5 °F 87% 29.98 in 10.0 mi WNW 4.6 mph - N/A   Scattered Clouds
8:35 AM 81.7 °F 89.2 °F 76.6 °F 85% 29.98 in 10.0 mi WNW 5.8 mph - N/A   Clear
8:55 AM 82.8 °F 91.0 °F 76.3 °F 81% 29.99 in 10.0 mi West 5.8 mph - N/A   Clear
9:15 AM 83.5 °F 92.2 °F 76.5 °F 79% 29.98 in 10.0 mi West 6.9 mph - N/A   Clear
9:35 AM 84.7 °F 94.4 °F 76.3 °F 76% 29.99 in 10.0 mi West 6.9 mph - N/A   Scattered Clouds
9:55 AM 85.5 °F 94.6 °F 75.6 °F 72% 30.00 in 10.0 mi Calm Calm - N/A   Scattered Clouds
10:15 AM 86.9 °F 96.4 °F 75.4 °F 68% 29.99 in 10.0 mi Calm Calm - N/A   Mostly Cloudy
10:35 AM 87.1 °F 95.9 °F 74.7 °F 66% 29.99 in 10.0 mi Calm Calm - N/A   Mostly Cloudy
10:55 AM 88.7 °F 97.7 °F 74.3 °F 62% 30.00 in 10.0 mi Calm Calm - N/A   Scattered Clouds
11:15 AM 89.4 °F 98.3 °F 73.9 °F 60% 29.99 in 10.0 mi WSW 4.6 mph - N/A   Mostly Cloudy
11:35 AM 90.1 °F 100.0 °F 74.5 °F 60% 29.99 in 10.0 mi SW 4.6 mph - N/A   Scattered Clouds
11:55 AM 90.3 °F 99.9 °F 74.5 °F 59% 29.99 in 10.0 mi Calm Calm - N/A   Scattered Clouds
12:15 PM 91.8 °F 100.9 °F 73.8 °F 55% 29.99 in 10.0 mi Calm Calm - N/A   Mostly Cloudy
12:35 PM 91.2 °F 100.8 °F 74.1 °F 57% 29.98 in 10.0 mi SW 4.6 mph - N/A   Mostly Cloudy
12:55 PM 92.7 °F 102.4 °F 73.9 °F 54% 29.98 in 10.0 mi SSW 4.6 mph - N/A   Scattered Clouds
1:15 PM 92.3 °F 102.2 °F 73.9 °F 55% 29.98 in 10.0 mi Calm Calm - N/A   Clear
1:35 PM 93.9 °F 103.4 °F 73.2 °F 51% 29.97 in 10.0 mi Calm Calm - N/A   Clear
1:55 PM 91.8 °F 100.9 °F 73.4 °F 55% 29.97 in 10.0 mi SW 3.5 mph - N/A   Mostly Cloudy
2:15 PM 93.2 °F 103.7 °F 74.1 °F 54% 29.97 in 10.0 mi Calm Calm - N/A   Mostly Cloudy
2:35 PM 93.6 °F 102.5 °F 73.2 °F 51% 29.96 in 10.0 mi WSW 3.5 mph - N/A   Mostly Cloudy
2:55 PM 93.0 °F 101.3 °F 72.5 °F 51% 29.95 in 10.0 mi Calm Calm - N/A   Mostly Cloudy
3:15 PM 94.5 °F 103.9 °F 73.2 °F 50% 29.94 in 10.0 mi NW 4.6 mph - N/A   Scattered Clouds
3:35 PM 93.7 °F 102.3 °F 72.7 °F 50% 29.94 in 10.0 mi Calm Calm - N/A   Scattered Clouds
3:55 PM 94.6 °F 103.7 °F 73.0 °F 49% 29.93 in 10.0 mi Calm Calm - N/A   Mostly Cloudy
4:15 PM 95.4 °F 105.4 °F 73.2 °F 49% 29.93 in 10.0 mi Calm Calm - N/A   Overcast
4:35 PM 94.6 °F 103.7 °F 72.5 °F 49% 29.92 in 10.0 mi Calm Calm - N/A   Overcast
4:55 PM 93.2 °F 103.7 °F 74.5 °F 54% 29.92 in 10.0 mi South 6.9 mph - N/A   Overcast
5:15 PM 84.9 °F 92.5 °F 74.3 °F 70% 29.94 in 5.0 mi SSW 6.9 mph 24.2 mph 0.04 in Rain Rain
5:35 PM 80.1 °F 84.5 °F 73.8 °F 81% 29.92 in 4.0 mi SW 8.1 mph 26.5 mph 0.14 in Rain , Thunderstorm Thunderstorms and Rain
5:55 PM 78.8 °F - 74.3 °F 86% 29.94 in 10.0 mi West 21.9 mph - 0.16 in Rain , Thunderstorm Light Thunderstorms and Rain
6:15 PM 78.8 °F - 73.0 °F 82% 29.93 in 10.0 mi WSW 8.1 mph - N/A   Scattered Clouds
6:35 PM 79.7 °F - 71.6 °F 76% 29.94 in 10.0 mi SSW 5.8 mph - N/A   Scattered Clouds
6:55 PM 80.6 °F 84.9 °F 72.5 °F 76% 29.93 in 10.0 mi SSW 5.8 mph - N/A   Scattered Clouds
7:15 PM 81.1 °F 86.8 °F 74.3 °F 80% 29.94 in 10.0 mi South 6.9 mph - N/A   Scattered Clouds
7:35 PM 81.7 °F 88.5 °F 75.6 °F 82% 29.94 in 10.0 mi North - - N/A   Clear
7:55 PM 82.4 °F 90.3 °F 76.3 °F 82% 29.94 in 10.0 mi SW 3.5 mph - N/A   Clear
8:15 PM 82.9 °F 91.8 °F 77.0 °F 82% 29.95 in 10.0 mi SSW 4.6 mph - N/A   Scattered Clouds
8:35 PM 83.1 °F 91.6 °F 76.3 °F 80% 29.96 in 10.0 mi SSW 8.1 mph - N/A   Scattered Clouds
8:55 PM 82.8 °F 91.0 °F 76.3 °F 81% 29.97 in 10.0 mi SSW 5.8 mph - N/A   Scattered Clouds
9:15 PM 82.4 °F 90.1 °F 76.1 °F 81% 29.97 in 10.0 mi SW 3.5 mph - N/A   Mostly Cloudy
9:35 PM 81.7 °F 88.7 °F 76.1 °F 83% 29.98 in 10.0 mi SSW 5.8 mph - N/A   Scattered Clouds
9:55 PM 80.8 °F 87.2 °F 76.5 °F 87% 29.99 in 10.0 mi North - - N/A   Clear
10:15 PM 80.6 °F 86.8 °F 76.3 °F 87% 29.99 in 10.0 mi North - - N/A   Clear
10:35 PM 80.2 °F 86.0 °F 76.5 °F 88% 30.00 in 10.0 mi North - - N/A   Clear
10:55 PM 79.9 °F - 76.5 °F 89% 30.00 in 10.0 mi North - - N/A   Clear
11:15 PM 79.7 °F - 76.3 °F 89% 30.00 in 10.0 mi Calm Calm - N/A   Clear
11:35 PM 79.3 °F - 76.5 °F 91% 30.00 in 10.0 mi SSW 3.5 mph - N/A   Clear
11:55 PM 79.3 °F - 76.3 °F 90% 30.00 in 10.0 mi SSW 3.5 mph - N/A   Clear